Date String (YYYY-MM-DD hh:mm:ss) UTC,Instrument flags,absolute air pressure of the measurement (hPa),sample flow rate (lpm),inlet stack bypass flow (lpm),air temperature of the measurement (°C),ambient temperature measured by the external sensor (°C),aerosol sample conditioner tube jacket temperature (°C),OPC LED temperature (°C),internal box temperature (°C),relative humidity of the measurement (%),span deviation,mass concentration of particles derived from Lorenz-Mie calculation of OPC scattering (μg/m³),mass concentration of particles derived from Lorenz-Mie calculation of OPC scattering (μg/m³),mass concentration of particles derived from Lorenz-Mie calculation of OPC scattering (μg/m³)
DateTimeUTC,F1_M11,P_M11,Q1_M11,Q2_M11,T1_M11,T2_M11,T3_M11,T4_M11,T5_M11,U1_M11,ZSPAN_M11,X0_M11,X2_M11,X1_M11
2023-09-27 19:00:00,SystemResetWarning,0830.8,4.99,000.00,028.1,025.3,000.0,036.5,029.7,21.9,0003.3,0028.76,0008.27,0006.22
2023-09-27 19:01:00,SystemResetWarning,0830.9,4.99,000.00,028.1,025.7,000.0,036.6,029.8,21.8,0003.2,0025.64,0008.18,0006.22
2023-09-27 19:02:00,SystemResetWarning,0830.9,5.00,000.00,028.1,026.1,000.0,036.6,029.9,21.9,0002.9,0025.79,0008.11,0006.23
2023-09-27 19:03:00,SystemResetWarning,0830.8,5.01,000.00,028.1,026.4,000.0,036.6,030.0,22.0,0002.9,0026.97,0008.17,0006.25
2023-09-27 19:04:00,SystemResetWarning,0830.8,5.00,000.00,028.2,026.7,000.0,036.6,030.0,22.2,0003.1,0027.51,0008.25,0006.25
2023-09-27 19:05:00,SystemResetWarning,0830.8,4.99,000.00,028.2,027.0,000.0,036.6,030.1,22.4,0003.1,0029.36,0008.30,0006.25
2023-09-27 19:06:00,SystemResetWarning,0830.8,4.99,000.00,028.3,026.8,000.0,036.6,030.2,22.1,0003.4,0029.10,0008.25,0006.24
2023-09-27 19:07:00,SystemResetWarning,0830.7,5.00,000.00,028.3,025.2,000.0,036.6,030.0,21.5,0003.3,0029.17,0008.22,0006.24
2023-09-27 19:08:00,SystemResetWarning,0830.7,5.01,000.00,028.2,024.5,000.0,036.5,029.8,21.5,0003.4,0028.11,0008.17,0006.24
2023-09-27 19:09:00,SystemResetWarning,0830.6,5.01,000.00,028.2,024.8,000.0,036.5,029.8,21.4,0003.0,0027.52,0008.16,0006.23
2023-09-27 19:10:00,SystemResetWarning,0830.6,5.00,000.00,028.1,025.2,000.0,036.5,029.7,21.2,0002.6,0024.87,0008.11,0006.22
2023-09-27 19:11:00,SystemResetWarning,0830.6,5.00,000.00,028.1,025.6,000.0,036.5,029.8,20.9,0002.5,0023.61,0008.06,0006.21
2023-09-27 19:12:00,SystemResetWarning,0830.6,5.01,000.00,028.1,026.0,000.0,036.6,029.8,20.0,0002.4,0023.51,0008.05,0006.20
2023-09-27 19:13:00,SystemResetWarning,0830.6,4.99,000.00,028.1,026.3,000.0,036.6,029.9,19.8,0002.2,0024.36,0008.07,0006.21
2023-09-27 19:14:00,SystemResetWarning,0830.6,5.00,000.00,028.2,026.6,000.0,036.6,030.0,18.1,0002.0,0023.65,0008.04,0006.21
2023-09-27 19:15:00,SystemResetWarning,0830.5,5.01,000.00,028.2,026.9,000.0,036.6,030.1,17.9,0001.6,0023.22,0008.00,0006.20
2023-09-27 19:16:00,SystemResetWarning,0830.5,4.98,000.00,028.2,026.1,000.0,036.6,030.1,18.4,0001.6,0022.48,0007.98,0006.21
2023-09-27 19:17:00,SystemResetWarning,0830.6,5.01,000.00,028.2,024.6,000.0,036.5,029.9,19.3,0001.6,0022.73,0007.98,0006.22
2023-09-27 19:18:00,SystemResetWarning,0830.6,5.02,000.00,028.1,024.5,000.0,036.5,029.8,18.8,0001.2,0022.74,0008.02,0006.22
2023-09-27 19:19:00,SystemResetWarning,0830.6,5.00,000.00,028.1,024.8,000.0,036.5,029.7,18.8,0001.0,0023.26,0008.10,0006.20
2023-09-27 19:20:00,SystemResetWarning,0830.5,5.00,000.00,028.0,025.2,000.0,036.5,029.7,16.2,0001.0,0023.54,0008.06,0006.20
2023-09-27 19:21:00,SystemResetWarning,0830.6,4.98,000.00,028.0,025.6,000.0,036.5,029.7,16.5,0001.2,0024.43,0008.04,0006.20
2023-09-27 19:22:00,SystemResetWarning,0830.4,4.99,000.00,028.1,026.0,000.0,036.5,029.8,15.6,0000.9,0024.84,0008.01,0006.18
2023-09-27 19:23:00,SystemResetWarning,0830.5,5.01,000.00,028.1,026.4,000.0,036.5,029.9,16.4,0000.9,0026.21,0008.04,0006.18
2023-09-27 19:24:00,SystemResetWarning,0830.5,5.01,000.00,028.1,026.7,000.0,036.5,030.0,15.6,0001.1,0025.22,0008.04,0006.18
2023-09-27 19:25:00,SystemResetWarning,0830.6,5.00,000.00,028.2,027.0,000.0,036.6,030.1,13.9,0001.5,0025.03,0007.99,0006.18
2023-09-27 19:26:00,SystemResetWarning,0830.4,4.98,000.00,028.2,026.3,000.0,036.5,030.1,13.8,0001.6,0025.10,0007.97,0006.19
2023-09-27 19:27:00,SystemResetWarning,0830.4,4.99,000.00,028.2,024.7,000.0,036.5,029.9,14.0,0001.7,0025.11,0008.00,0006.19
2023-09-27 19:28:00,SystemResetWarning,0830.4,5.01,000.00,028.1,024.4,000.0,036.4,029.8,14.1,0001.4,0025.39,0008.05,0006.17
2023-09-27 19:29:00,SystemResetWarning,0830.4,5.00,000.00,028.0,024.8,000.0,036.4,029.6,14.3,0001.5,0025.49,0008.04,0006.16
2023-09-27 19:30:00,SystemResetWarning,0830.4,4.99,000.00,028.0,025.2,000.0,036.4,029.6,14.2,0001.6,0025.14,0008.00,0006.17
2023-09-27 19:31:00,SystemResetWarning,0830.4,5.00,000.00,028.0,025.6,000.0,036.4,029.7,13.6,0001.8,0024.23,0008.00,0006.17
2023-09-27 19:32:00,SystemResetWarning,0830.4,5.00,000.00,028.0,026.0,000.0,036.5,029.8,13.4,0001.5,0024.16,0008.05,0006.17
2023-09-27 19:33:00,SystemResetWarning,0830.4,5.01,000.00,028.0,026.3,000.0,036.5,029.9,13.2,0001.5,0024.71,0008.11,0006.19
2023-09-27 19:34:00,SystemResetWarning,0830.4,5.01,000.00,028.1,026.6,000.0,036.5,029.9,13.1,0001.9,0023.98,0008.13,0006.20
2023-09-27 19:35:00,SystemResetWarning,0830.4,4.99,000.00,028.1,026.9,000.0,036.5,030.0,12.8,0002.1,0024.73,0008.18,0006.21
2023-09-27 19:36:00,SystemResetWarning,0830.3,5.00,000.00,028.2,027.0,000.0,036.5,030.1,13.0,0001.7,0025.20,0008.28,0006.21
2023-09-27 19:37:00,SystemResetWarning,0830.3,4.98,000.00,028.2,025.8,000.0,036.5,030.0,13.3,0002.1,0025.59,0008.29,0006.22
2023-09-27 19:38:00,SystemResetWarning,0830.3,5.01,000.00,028.1,024.6,000.0,036.4,029.8,12.9,0001.8,0024.48,0008.25,0006.20
2023-09-27 19:39:00,SystemResetWarning,0830.3,5.01,000.00,028.1,024.6,000.0,036.4,029.7,13.0,0001.9,0023.45,0008.23,0006.21
2023-09-27 19:40:00,SystemResetWarning,0830.3,4.99,000.00,028.0,024.9,000.0,036.4,029.6,13.4,0002.7,0023.53,0008.26,0006.22
2023-09-27 19:41:00,SystemResetWarning,0830.3,4.98,000.00,028.0,025.4,000.0,036.4,029.6,13.2,0002.6,0023.65,0008.26,0006.22
2023-09-27 19:42:00,SystemResetWarning,0830.3,5.01,000.00,028.0,025.8,000.0,036.4,029.7,12.9,0002.5,0023.90,0008.32,0006.23
2023-09-27 19:43:00,SystemResetWarning,0830.2,5.01,000.00,028.0,026.1,000.0,036.5,029.8,12.8,0002.7,0023.75,0008.33,0006.23
2023-09-27 19:44:00,SystemResetWarning,0830.3,5.00,000.00,028.1,026.5,000.0,036.5,029.9,12.8,0003.1,0023.17,0008.29,0006.22
2023-09-27 19:45:00,SystemResetWarning,0830.3,4.99,000.00,028.1,026.8,000.0,036.5,030.0,12.7,0003.3,0022.20,0008.25,0006.20
2023-09-27 19:46:00,SystemResetWarning,0830.3,5.00,000.00,028.2,027.0,000.0,036.5,030.0,12.8,0003.3,0020.92,0008.14,0006.16
2023-09-27 19:47:00,SystemResetWarning,0830.3,5.00,000.00,028.2,026.8,000.0,036.5,030.1,12.6,0003.6,0020.47,0007.98,0006.13
2023-09-27 19:48:00,SystemResetWarning,0830.2,5.00,000.00,028.2,025.3,000.0,036.5,029.9,12.6,0003.7,0021.73,0007.90,0006.07
2023-09-27 19:49:00,SystemResetWarning,0830.3,5.00,000.00,028.1,024.5,000.0,036.4,029.7,12.6,0004.2,0022.91,0007.79,0006.00
2023-09-27 19:50:00,SystemResetWarning,0830.2,5.02,000.00,028.0,024.7,000.0,036.4,029.7,12.6,0004.2,0024.60,0007.72,0005.93
2023-09-27 19:51:00,SystemResetWarning,0830.1,4.99,000.00,028.0,025.0,000.0,036.4,029.6,12.6,0003.8,0025.29,0007.61,0005.88
2023-09-27 19:52:00,SystemResetWarning,0830.1,5.00,000.00,028.0,025.5,000.0,036.4,029.6,12.7,0003.6,0024.16,0007.55,0005.84
2023-09-27 19:53:00,SystemResetWarning,0830.1,5.01,000.00,028.0,025.9,000.0,036.4,029.7,12.7,0003.5,0024.21,0007.50,0005.79
2023-09-27 19:54:00,SystemResetWarning,0830.1,5.01,000.00,028.0,026.2,000.0,036.4,029.8,13.0,0002.2,0024.78,0007.43,0005.73
2023-09-27 19:55:00,SystemResetWarning,0830.1,5.00,000.00,028.1,026.5,000.0,036.5,029.9,13.1,0003.1,0024.26,0007.34,0005.65
2023-09-27 19:56:00,SystemResetWarning,0830.1,5.00,000.00,028.1,026.8,000.0,036.5,030.0,13.3,0002.6,0023.88,0007.23,0005.56
2023-09-27 19:57:00,SystemResetWarning,0830.1,4.99,000.00,028.2,026.8,000.0,036.5,030.0,13.1,0002.1,0024.09,0007.12,0005.52
2023-09-27 19:58:00,SystemResetWarning,0830.1,4.99,000.00,028.2,025.3,000.0,036.4,029.9,12.9,0000.4,0024.29,0007.08,0005.46
2023-09-27 19:59:00,SystemResetWarning,0830.0,5.01,000.00,028.1,024.3,000.0,036.4,029.7,13.0,0001.7,0022.56,0007.02,0005.41
